Gulfport, MS

3:42 AM CDT on July 28, 2017 (GMT -0500)
Gulfport-Biloxi Regional

Weather History for KGPT - October, 2012

Change the Weather History Date:

Saturday, October 27, 2012

  Actual Average Record
Temperature  
Mean Temperature 54 °F -  
Max Temperature 59 °F 76 °F 87 °F (2010)
Min Temperature 46 °F 53 °F 34 °F (1957)
Degree Days  
Heating Degree Days 11    
Growing Degree Days 4 (Base 50)    
Moisture  
Dew Point 48 °F    
Average Humidity 79    
Maximum Humidity 89    
Minimum Humidity 67    
Precipitation  
Precipitation 0.00 in - - ()
Sea Level Pressure  
Sea Level Pressure 29.97 in    
Wind  
Wind Speed 15 mph (NNW)    
Max Wind Speed 22 mph    
Max Gust Speed 28 mph    
Visibility 10 miles    
Events      
Averages and records for this station are not official NWS values.
T = Trace of Precipitation, MM = Missing Value Source: NWS Daily Summary

Daily Weather History Graph

Daily Weather History Graph

Search for Another Location

Airport or City:

Trip Planner

Search our weather history database for the weather conditions in past years. The results will help you decide how hot, cold, wet, or windy it might be!

Date:

Astronomy

Oct. 27, 2012 Rise Set
Actual Time 7:07 AM CDT 6:12 PM CDT
Civil Twilight 6:42 AM CDT 6:37 PM CDT
Nautical Twilight 6:14 AM CDT 7:05 PM CDT
Astronomical Twilight 5:46 AM CDT 7:33 PM CDT
Moon 4:54 PM CDT (10/27) 5:08 AM CDT (10/27)
Length of Visible Light 11h 54m
Length of Day
11h 05m
Waxing Gibbous, 96% of the Moon is Illuminated
Oct 27
Waxing Gibbous
Oct 29
Full
Nov 6
Last Quarter
Nov 13
New
Nov 20
First Quarter

Hourly Weather History & Observations

Time (CDT) Temp. Windchill Dew Point Humidity Pressure Visibility Wind Dir Wind Speed Gust Speed Precip Events Conditions
12:07 AM 62.6 °F - 55.4 °F 77% 29.96 in 10.0 mi NNW 13.8 mph - N/A   Mostly Cloudy
12:20 AM 60.8 °F - 55.4 °F 82% 29.97 in 10.0 mi NNW 15.0 mph 27.6 mph N/A   Scattered Clouds
12:53 AM 59.0 °F - 54.0 °F 83% 29.96 in 10.0 mi NNW 16.1 mph 23.0 mph N/A   Partly Cloudy
1:28 AM 57.2 °F - 51.8 °F 82% 29.96 in 10.0 mi NNW 17.3 mph - N/A   Mostly Cloudy
1:53 AM 55.9 °F - 51.1 °F 84% 29.96 in 10.0 mi NNW 18.4 mph 25.3 mph N/A   Overcast
2:53 AM 55.0 °F - 50.0 °F 83% 29.96 in 10.0 mi North 21.9 mph 27.6 mph N/A   Overcast
3:53 AM 54.0 °F - 48.9 °F 83% 29.94 in 10.0 mi North 15.0 mph - N/A   Overcast
4:53 AM 53.1 °F - 48.9 °F 86% 29.95 in 10.0 mi NNW 15.0 mph - N/A   Overcast
5:53 AM 53.1 °F - 48.0 °F 83% 29.96 in 10.0 mi North 15.0 mph - N/A   Overcast
6:53 AM 52.0 °F - 48.0 °F 86% 29.97 in 10.0 mi North 12.7 mph 19.6 mph N/A   Overcast
7:01 AM 51.8 °F - 48.2 °F 88% 29.97 in 10.0 mi North 16.1 mph 23.0 mph N/A   Overcast
7:53 AM 52.0 °F - 48.0 °F 86% 29.98 in 10.0 mi NNW 13.8 mph - N/A   Overcast
8:53 AM 52.0 °F - 46.9 °F 83% 30.00 in 10.0 mi North 15.0 mph - N/A   Overcast
9:53 AM 54.0 °F - 46.9 °F 77% 30.00 in 10.0 mi NNW 17.3 mph 23.0 mph N/A   Mostly Cloudy
10:53 AM 55.9 °F - 46.9 °F 72% 30.00 in 10.0 mi NW 16.1 mph 20.7 mph N/A   Mostly Cloudy
11:48 AM 59.0 °F - 48.2 °F 67% 29.98 in 10.0 mi NW 15.0 mph 20.7 mph N/A   Scattered Clouds
11:53 AM 57.9 °F - 48.0 °F 70% 29.98 in 10.0 mi NW 16.1 mph 23.0 mph N/A   Scattered Clouds
12:53 PM 57.0 °F - 46.9 °F 69% 29.97 in 10.0 mi North 17.3 mph 23.0 mph N/A   Mostly Cloudy
1:53 PM 55.0 °F - 46.0 °F 72% 29.95 in 10.0 mi North 16.1 mph 24.2 mph N/A   Overcast
2:53 PM 55.0 °F - 46.0 °F 72% 29.93 in 10.0 mi NNW 17.3 mph 21.9 mph N/A   Overcast
3:53 PM 53.1 °F - 45.0 °F 74% 29.94 in 10.0 mi North 18.4 mph 25.3 mph N/A   Overcast
4:53 PM 52.0 °F - 44.1 °F 74% 29.95 in 10.0 mi North 16.1 mph 25.3 mph N/A   Overcast
5:53 PM 52.0 °F - 44.1 °F 74% 29.96 in 10.0 mi NNW 15.0 mph - N/A   Overcast
6:53 PM 52.0 °F - 44.1 °F 74% 29.97 in 10.0 mi North 12.7 mph 23.0 mph N/A   Overcast
7:53 PM 51.1 °F - 44.1 °F 77% 29.98 in 10.0 mi NNW 13.8 mph 21.9 mph N/A   Partly Cloudy
8:53 PM 50.0 °F - 44.1 °F 80% 29.99 in 10.0 mi NNW 10.4 mph - N/A   Clear
9:53 PM 48.0 °F - 43.0 °F 83% 30.00 in 10.0 mi NNW 5.8 mph - N/A   Clear
10:53 PM 46.4 °F 42.4 °F 42.8 °F 87% 30.01 in 10.0 mi NW 8.1 mph - N/A   Clear
11:53 PM 46.0 °F 42.5 °F 43.0 °F 89% 30.00 in 10.0 mi NW 6.9 mph - N/A   Clear